Погода в Колывани

Погода в Колывани : погода сейчас, прогноз погоды и архив. Всё, что Вы хотите узнать о погоде в Колывани!

Хотите узнать прогноз погоды в Колывани? Тогда Вам сюда: Погода в Колывани

Поиск расширенной информации на нашем сайте:

Другие новости

Новости СМИ2

Главная страница сайта

Новости сайта

02.10.2013

Напоминаем, что на нашем новом сайте вы можете получить высокодетализированные прогнозы погоды по пунктам России, СНГ и мира (включающие важные для авиации метеовеличины, такие как направление и скорость ветра, видимость, явления погоды, количество и форма облачности, нижняя и верхняя граница облачности), а также ознакомиться с разнообразными материалами по авиационной метеорологии и подборкой полезных ссылок на эту тему.

Сайт Метеоцентр.Азия посвящён разработке технологий оптимизации авиаметеорологического обслуживания, включая проектирование и перспективное создание нескольких автоматизированных авиаметеорологических систем:
- система выпуска высокодетальных прогностических карт явлений погоды для нижнего воздушного пространства по России и ближнему зарубежью;
- система верификации прогнозов TAF (выпускаемых синоптиками официальных АМСГ РФ и ближнего зарубежья) и AUTOTAF (выпускаемых сайтом Метеоцентр.Азия) - выявление ошибок, онлайн-сопоставление с фактической погодой METAR, автоматическое внесение коррективов в прогнозы при резком отклонении фактической погоды от прогноза, подсчёт оправдываемости прогнозов по элементам и в целом;
- система обработки, анализа и отображения авиаметеорологической информации для применения провайдерами метеорологической информации.

Рекомендуем: дженерики виагры

Погода в Колывани - сегодня

Время (UTC), дата Ветер
(°,м/с) 
Видим.   Явления Облачность Т
(°С)
Тd
(°С)
f(%) Тe
(°С)
Pmin
(гПа)
dP
(гПа)
Po
(мм)
O2
(г/м3)
Тmin Tmax R s Состояние
почвы
15 26.03.17 090 (В) 20000 м    3/0 верхняя 
[Ci fib]
-2.6 -4.6 86 -2  1020.7  -2.6  752  306           
18 26.03.17 090 (В) 20000 м    ясно 
-2.8 -4.9 85 -2  1018.2  -2.5  750  306           
21 26.03.17 070 (В) 20000 м    3/0 верхняя 
[Ci fib]
-3.5 -5.8 84 -5  1015.5  -2.7  748  306           
00 27.03.17 080 (В) 20000 м    8/0 
[Sc]
-2.8 -5.2 84 -4  1013.9  -1.5  746  304  -3.8      32  неравномерный
мокрый или
старый снег
100% 
03 27.03.17 100 (В) 20000 м    10/10 1000 м 
[Sc]
-0.7 -3.9 79 -3  1012.5  -1.2  746  302           
06 27.03.17 200 (Ю) 20000 м  {ливн. осадки}  10/10 600 м кучево-дожд. 
[Cb cap]
+2.2 +0.3 87 +1  1012.6  0.3  746  298           
09 27.03.17 200 (Ю) 20000 м    10/10 600 м кучево-дожд. 
[Cb cap]
+1.8 +0.1 88 1014.2  1.5  747  299           
12 27.03.17 230 (ЮЗ) 20000 м    10/10 600 м кучево-дожд. 
[Cb cap]
+0.3 -1.4 88 -1  1017.3  2.9  749  302    +2.2  0.3     
15 27.03.17 210 (ЮЗ) 20000 м    3/3 1000 м 
[Sc]
-0.7 -2.9 85 -3  1020.2  2.9  751  304           
18 27.03.17 220 (ЮЗ) 5{10}  20000 м    10/10 1000 м 
[Sc]
-0.8 -2.7 87 -4  1022.1  1.8  753  304           
21 27.03.17 200 (Ю) 4{10}  20000 м    10/10 1000 м 
[Sc]
-0.3 -1.3 93 -3  1022.5  0.4  753  304           
00 28.03.17 190 (Ю) 1000 м  дымка  10/10 1000 м 
[Sc]
+0.4 +0.1 98 -2  1022.7  0.3  753  303  -1.2      32  неравномерный
мокрый или
старый снег
100% 
03 28.03.17 200 (Ю) 4000 м  дымка  10/10 1000 м 
[Sc]
+1.2 +0.8 97 -1  1022.8  0.1  753  302           
06 28.03.17 190 (Ю) 20000 м    10/10 1000 м 
[Sc]
+3.3 +0.8 84 +1  1022.3  -0.3  753  300           
09 28.03.17 180 (Ю) 20000 м    9/6 1000 м верхняя 
[Sc|Ci sp]
+6.1 +0.2 66 +5  1020.4  -1.7  752  296           
12 28.03.17 190 (Ю) 5{10}  20000 м    8/6 1000 м верхняя 
[Sc|Ci sp]
+5.2 -1 64 +3  1019.4  -1.1  751  297    +6.2       
15 28.03.17 180 (Ю) 20000 м    10/10 1000 м 
[Sc]
+4 -2 65 +2  1018.2  -1.2  750  298           
18 28.03.17 190 (Ю) 5{10}  20000 м    10/10 1000 м 
[Sc]
+2.6 -2 72 1018  -0.3  750  299           
21 28.03.17 190 (Ю) 4{10}  20000 м    6/4 1000 м верхняя 
[Sc|Ci fib]
+1.4 -2 78 -1  1017.1  -1  749  300           
00 29.03.17 180 (Ю) 20000 м    10/3 1000 м верхняя 
[Sc|Ci fib]
+0.9 -2.2 80 -1  1015.3  -1.8  748  301  +0.9      30  неравномерный
мокрый или
старый снег
100% 
03 29.03.17 170 (Ю) 6-10{10}  20000 м    10/0 верхняя 
[Ci]
+3.6 -1.4 70 +1  1013.5  -1.6  746  297           
06 29.03.17 190 (Ю) 7-13{13}  20000 м    10/0 верхняя 
[Cs]
+6.7 -1 58 +4  1011.3  -1.9  745  293           
09 29.03.17 190 (Ю) 7-11{14}  20000 м    10/0 средняя, верхняя 
[Ac lent|Ci]
+8.1 -0.7 54 +6  1009.5  -1.7  744  291           
12 29.03.17 210 (ЮЗ) 6-10{15}  20000 м    10/10 1000 м 
[Sc]
+5.9 +0.2 67 +4  1011.1  1.5  745  294    +8.5       
15 29.03.17 240 (ЮЗ) 2{11}  20000 м    10/10 1000 м 
[Sc]
+3.1 +0.1 81 +3  1013.4  746  297           
Время (UTC), дата Ветер
(°,м/с) 
Видим.   Явления Облачность Т
(°С)
Тd
(°С)
f(%) Тe
(°С)
Pmin
(гПа)
dP
(гПа)
Po
(мм)
O2
(г/м3)
Тmin Tmax R s Состояние
почвы

Для получения пояснительной информации подведите курсор к названию столбца.

ПОГОДА в Колывани - архив

Всё, что Вы хотите узнать о погоде в Колывани - удобно и подробно!

Выберите нужную дату (начиная с 1 января 2015* года) и нажмите кнопку "Найти".
Будут отображены архивные сводки погоды по пункту Колывань, начиная с указанной даты.


Отображать данные в формате CSV (для использования в таблицах Excel)


Внимание! Наш архив погоды предназначен исключительно для личного некоммерческого использования в познавательных целях. Если Вам необходимы официальные справки о состоянии погоды (для производственных, юридических, коммерческих и т.п. целей), обращайтесь в органы Росгидромета.

*Примечание: данная дата относится к архиву по метеостанциям СССР (Россия, СНГ, Балтия).
Архив по метеостанциям Зарубежной Европы и Азии (кроме Китая) хранится 10 дней, по другим регионам земного шара (Китай, Африка, Америка, Австралия, Океания) - 1 день.

Колывань - район местоположения метеостанции


Название, широта, долгота, высота метеостанции:
Колывань 55.3°ш. 82.8°д. 137 м над ур. моря [Российская Федерация]

Дополнительная информация

В oтличие oт бoльшинства пoгoдных сайтoв мы публикуем пoдрoбную метеoинфoрмацию в детальнoм прoфессиoнальнoм фoрмате.

Характеристики температуры и влажнoсти вoздуха измеряются на высoте 2 м в тени вдали oт зданий и деревьев.
Скoрoсть ветра измеряется на высoте 10 м (на урoвне рoста челoвека скoрoсть ветра ниже в 1.5-2 раза). Если метеoстанция нахoдится в гoрoде или в лесу, тo скoрoсть ветра занижена на 2-4 м/с пo сравнению с oткрытым местoм. Скoрoсть ветра над акватoриями крупных рек и oзёр, а также на вершинах хoлмoв на 2-5 м/с выше, чем в oбычных услoвиях.
Атмoсфернoе давление в разных тoчках местнoсти мoжет значительнo oтличаться oт давления на метеoстанции, в зависимoсти oт услoвий рельефа (при пoдъёме на 10 м давление пoнижается примернo на 1 мм рт.ст.).